Location: Unspecified
(47.6567°N, 0.0000°E)
Time: 01:02:40
(UTC+00:00)

Envisat - Visible Passes

Search period start: 15 October 2019 00:00
Search period end: 25 October 2019 00:00
Orbit: 764 x 766 km, 98.1° (Epoch: 14 October)

Date Brightness Start Highest point End Pass type
(mag) Time Alt. Az. Time Alt. Az. Time Alt. Az.
15 Oct 5.1 18:57:54 10° SSW 19:02:16 28° W 19:06:38 10° NW visible
16 Oct 6.7 05:26:16 10° ENE 05:27:35 11° E 05:28:55 10° E visible
16 Oct 3.7 18:20:17 10° S 18:25:17 58° W 18:30:19 10° NNW visible
17 Oct 3.0 17:43:28 10° SSE 17:48:29 70° ENE 17:53:34 10° N visible
17 Oct 5.8 19:24:45 10° SW 19:28:02 17° W 19:31:21 10° NW visible
18 Oct 6.1 05:49:53 10° NE 05:53:28 19° E 05:57:00 10° SE visible
18 Oct 4.7 18:46:18 10° SSW 18:50:55 35° W 18:55:34 10° NNW visible
19 Oct 3.3 18:08:56 10° S 18:13:59 72° WSW 18:19:06 10° NNW visible
20 Oct 3.1 17:32:19 10° SSE 17:37:16 56° ENE 17:42:15 10° N visible
20 Oct 5.5 19:12:50 10° SW 19:16:39 21° W 19:20:30 10° NW visible
21 Oct 6.2 05:39:08 10° NE 05:42:03 15° E 05:44:57 10° ESE visible
21 Oct 4.3 18:34:46 10° S 18:39:35 43° W 18:44:26 10° NNW visible
22 Oct 3.0 17:57:38 10° SSE 18:02:43 88° WSW 18:07:50 10° NNW visible
22 Oct 6.1 19:40:20 10° WSW 19:42:29 13° W 19:44:39 10° WNW visible
23 Oct 3.3 17:21:14 10° SE 17:26:03 46° ENE 17:30:54 10° N visible
23 Oct 5.2 19:01:03 10° SSW 19:05:16 26° W 19:09:31 10° NW visible
24 Oct 6.5 05:28:42 10° ENE 05:30:38 12° E 05:32:34 10° ESE visible
24 Oct 3.8 18:23:18 10° S 18:28:16 53° W 18:33:16 10° NNW visible
